Flag for Canada Weather past 2 weeks in Sidney, British Columbia, Canada

Now
63 °F

Broken clouds.


Feels Like: 63 °F
Forecast: 55 / 66 °F
Wind: 13 mph from South

Location: Victoria Int. Airportb. C.

Current Time: Aug 29, 2015 at 7:15:15 PM

Latest Report: Aug 29, 2015 at 6:45 PM


Visibility: 20 mi

Pressure: 29.67 "Hg

Humidity: 77%

Dew point: 55 °F

Location of SidneyLocation

Historic Weather in Sidney — Graph

°F

Sidney temperature yesterday

Maximum temperature yesterday: 66 °F (at 12:00 AM)
Minimum temperature yesterday: 57 °F (at 6:00 AM)
Average temperature yesterday: 62 °F

Past Weeks' High & Low Weather Summary

 TemperatureHumidityPressure
High82 °F (Aug 18, 4:00 PM)100% (Aug 28, 6:00 AM)30.28 "Hg (Aug 28, 6:00 AM)
Low50 °F (Aug 17, 6:00 AM)33% (Aug 24, 8:00 PM)29.40 "Hg (Aug 29, 11:00 AM)
Average64 °F68%29.99 "Hg
* Reported Aug 14 6:00 PM — Aug 29 6:00 PM, Sidney, Weather by CustomWeather, © 2015

Note: Actual official high and low records may vary slightly from our data, if they occured in-between our weather recording intervals... More about our weather records

Advertising

Sidney weather history for previous 24 hours

 ConditionsComfort  
Time TempWeatherWind HumidityBarometerVisibility
6:00 PM
Sat, Aug 29
63 °FLight rain. Mostly cloudy.7 mph83%29.66 "Hg15 mi
5:00 PM63 °FLight rain. Mostly cloudy.9 mph73%29.64 "Hg20 mi
4:00 PM68 °FPartly sunny.17 mph60%29.62 "Hg30 mi
3:00 PM70 °FBroken clouds.24 mph53%29.60 "Hg30 mi
2:00 PM66 °FSprinkles. Broken clouds.8 mph73%29.54 "Hg20 mi
1:00 PM64 °FBroken clouds.10 mph73%29.48 "Hg20 mi
12:00 PM64 °FBroken clouds.21 mph73%29.44 "Hg20 mi
11:00 AM64 °FPartly sunny.17 mph78%29.40 "Hg20 mi
10:00 AM61 °FBroken clouds.15 mph94%29.43 "Hg15 mi
9:00 AM63 °FBroken clouds.14 mph88%29.46 "Hg15 mi
8:00 AM59 °FLight rain. Cloudy.9 mph94%29.44 "Hg12 mi
7:00 AM61 °FLight rain. Overcast.15 mph94%29.44 "Hg12 mi
6:00 AM61 °FLight rain. Fog.17 mph94%29.53 "Hg5 mi
5:00 AM61 °FPartly cloudy.6 mph88%29.50 "Hg30 mi
4:00 AM61 °FMostly cloudy.3 mph88%29.56 "Hg30 mi
3:46 AM61 °FMostly cloudy.5 mph94%29.56 "Hg30 mi
3:00 AM61 °FLight rain. Overcast.5 mph94%29.57 "Hg20 mi
2:00 AM61 °FMostly cloudy.2 mph88%29.62 "Hg30 mi
1:00 AM61 °FLight rain. Mostly cloudy.No wind88%29.66 "Hg30 mi
12:47 AM61 °FLight rain. Mostly cloudy.3 mph88%29.67 "Hg30 mi
12:00 AM61 °FLight rain. Mostly cloudy.6 mph88%29.71 "Hg30 mi
11:55 PM
Fri, Aug 28
61 °FLight rain. Mostly cloudy.6 mph88%29.71 "Hg30 mi
11:00 PM61 °FLight rain. Mostly cloudy.No wind83%29.75 "Hg30 mi
10:00 PM61 °FMostly cloudy.2 mph83%29.78 "Hg30 mi
9:00 PM63 °FMore clouds than sun.2 mph77%29.81 "Hg30 mi
8:00 PM63 °FPartly sunny.3 mph73%29.81 "Hg30 mi
7:00 PM64 °FPartly sunny.2 mph73%29.83 "Hg30 mi
Weather by CustomWeather, © 2015

See weather overviewHow to use our weather pages